Location: Nairn
(57.5833°N, 3.8667°W)
Time: 20:30:15
(UTC+00:00)

S-56A Canister/Altair - Pass Details

Date: 12 October 2022
Orbit: 638 x 2494 km, 38.9° (Epoch: 05 December)

Event Time Altitude Azimuth Distance (km) Brightness Sun altitude
Exits shadow 02:52:42 12° 161° (SSE) 3,405 10.6 -29.9°
Drops below altitude 10° 02:53:22 10° 157° (SSE) 3,516 10.7 -29.9°
Sets 02:56:38 0° 143° (SE) 4,205 11.3 -29.5°
